This is the latest recevied weather packets stored in our database for station/object DC4XK-10. If no packets are shown the sender has not sent any weather packets the latest 10 day(s).
| Time | Temp. | Humidity | Pressure | Rain* | Wind** | Luminosity | Snow |
|---|---|---|---|---|---|---|---|
| 1778018331 | 6.67° C | 94% | 1008.9 hPa | 0 mm | 0 m/s | - | - |
| 1778013531 | 8.33° C | 87% | 1009.2 hPa | 0 mm | 0 m/s | - | - |
| 1778012931 | 8.89° C | 86% | 1008.9 hPa | 0 mm | 0 m/s | - | - |
| 1778012330 | 8.89° C | 85% | 1009 hPa | 0 mm | 0 m/s | - | - |
| 1778011731 | 9.44° C | 85% | 1009.1 hPa | 0 mm | 0 m/s | - | - |
| 1778011133 | 8.89° C | 85% | 1008.9 hPa | 0 mm | 0 m/s | - | - |
| 1778009931 | 9.44° C | 81% | 1008.9 hPa | 0 mm | 0 m/s | - | - |
| 1778009333 | 10° C | 79% | 1009.2 hPa | 0 mm | 0 m/s | - | - |
| 1778008730 | 10.56° C | 77% | 1008.9 hPa | 0 mm | 0 m/s | - | - |
| 1778008131 | 11.11° C | 75% | 1008.8 hPa | 0 mm | 0 m/s | - | - |
| 1778007533 | 11.67° C | 72% | 1008.7 hPa | 0 mm | 0 m/s | - | - |
| 1778006931 | 12.22° C | 67% | 1008.8 hPa | 0 mm | 0 m/s | - | - |
| 1778006331 | 12.78° C | 67% | 1008.7 hPa | 0 mm | 0.45 m/s, 279° | - | - |
| 1778005730 | 13.33° C | 64% | 1008.7 hPa | 0 mm | 0 m/s | - | - |
| 1778005131 | 13.89° C | 63% | 1008.6 hPa | 0 mm | 0 m/s | - | - |
| 1778003331 | 14.44° C | 61% | 1008.9 hPa | 0 mm | 0 m/s | - | - |
| 1778002731 | 15° C | 60% | 1008.7 hPa | 0 mm | 0 m/s | - | - |
| 1778002131 | 15.56° C | 56% | 1008.8 hPa | 0 mm | 0.45 m/s, 309° | - | - |
| 1778001531 | 16.11° C | 55% | 1008.6 hPa | 0 mm | 0 m/s | - | - |
| 1778000931 | 15.56° C | 54% | 1008.5 hPa | 0 mm | 1.34 m/s, 331° | - | - |
| 1778000331 | 16.11° C | 50% | 1008.6 hPa | 0 mm | 0.45 m/s, 309° | - | - |
| 1777999731 | 16.11° C | 50% | 1008.6 hPa | 0 mm | 0 m/s | - | - |
| 1777999132 | 16.11° C | 51% | 1008.7 hPa | 0 mm | 0.89 m/s, 300° | - | - |
| 1777998531 | 16.11° C | 50% | 1008.7 hPa | 0 mm | 0.89 m/s, 290° | - | - |
| 1777997930 | 16.67° C | 49% | 1008.7 hPa | 0 mm | 0.45 m/s, 4° | - | - |
* Rain latest hour (hover to see other rain measurements)
** Current wind speed in m/s (hover to see current wind gust speed)